Location: Dampvalley
(47.9094°N, 6.1967°E)
Time: 11:55:58
(UTC+00:00)

N. Korean satellite - Visible Passes

Search period start: 03 December 2022 00:00
Search period end: 13 December 2022 00:00
Orbit: 421 x 453 km, 97.3° (Epoch: 02 December)

Date Brightness Start Highest point End Pass type
(mag) Time Alt. Az. Time Alt. Az. Time Alt. Az.
03 Dec 9.2 04:08:57 10° NE 04:11:26 19° E 04:13:54 10° SE visible
03 Dec 7.2 05:40:59 10° N 05:44:01 30° WNW 05:47:01 10° SW visible
03 Dec 7.2 16:13:01 10° S 16:16:21 58° W 16:19:44 10° NNW visible
04 Dec 6.3 05:01:50 10° NNE 05:05:16 87° ESE 05:08:39 10° SSW visible
04 Dec 9.8 17:08:31 10° WSW 17:10:16 13° W 17:12:01 10° WNW visible
05 Dec 8.5 04:23:19 10° NE 04:26:17 27° E 04:29:13 10° SSE visible
05 Dec 7.7 05:56:01 10° NNW 05:58:39 21° WNW 06:01:16 10° WSW visible
05 Dec 8.2 16:27:56 10° SSW 16:31:06 37° W 16:34:19 10° NNW visible
06 Dec 6.3 05:16:34 10° N 05:19:56 60° WNW 05:23:15 10° SSW visible
07 Dec 7.7 04:37:43 10° NNE 04:40:58 40° E 04:44:09 10° S visible
07 Dec 8.1 06:11:08 10° NNW 06:13:08 15° WNW 06:15:08 10° W visible
07 Dec 9.0 16:42:54 10° SSW 16:45:45 25° W 16:48:39 10° NW visible
08 Dec 9.6 03:59:48 10° NE 04:01:44 14° E 04:03:39 10° SE visible
08 Dec 6.8 05:31:14 10° N 05:34:26 39° WNW 05:37:34 10° SW visible
09 Dec 6.8 04:52:05 10° NNE 04:55:28 63° ESE 04:58:46 10° S visible
09 Dec 8.4 06:26:40 10° NW 06:27:27 11° WNW 06:28:14 10° WNW visible
09 Dec 9.6 16:57:56 10° SW 17:00:17 17° W 17:02:39 10° NW visible
10 Dec 9.0 04:13:37 10° NE 04:16:15 21° E 04:18:49 10° SE visible
10 Dec 7.3 05:45:51 10° N 05:48:44 27° WNW 05:51:36 10° SW visible
10 Dec 7.5 16:17:42 10° S 16:21:01 50° W 16:24:22 10° NNW visible
11 Dec 6.2 05:06:23 10° N 05:09:48 83° WNW 05:13:07 10° SSW visible
11 Dec 9.9 17:13:18 10° WSW 17:14:42 12° W 17:16:08 10° WNW visible
12 Dec 8.3 04:27:34 10° NNE 04:30:35 30° E 04:33:33 10° SSE visible
12 Dec 7.8 06:00:27 10° NNW 06:02:54 19° WNW 06:05:19 10° WSW visible
12 Dec 8.4 16:32:10 10° SSW 16:35:17 33° W 16:38:26 10° NNW visible
